Index of /20260414/WXO-DD/model_rdps/10km/12/070
Name Last modified Size Description
Parent Directory -
20260414T12Z_MSC_RDPS_AbsoluteVorticity_IsbL-0250_RLatLon0.09_PT070H.grib2 2026-04-14 15:01 609K
20260414T12Z_MSC_RDPS_AbsoluteVorticity_IsbL-0500_RLatLon0.09_PT070H.grib2 2026-04-14 15:01 559K
20260414T12Z_MSC_RDPS_AbsoluteVorticity_IsbL-0700_RLatLon0.09_PT070H.grib2 2026-04-14 15:01 611K
20260414T12Z_MSC_RDPS_AbsoluteVorticity_IsbL-0850_RLatLon0.09_PT070H.grib2 2026-04-14 15:01 775K
20260414T12Z_MSC_RDPS_AirTemp_AGL-120m_RLatLon0.09_PT070H.grib2 2026-04-14 15:01 382K
20260414T12Z_MSC_RDPS_AirTemp_AGL-2m_RLatLon0.09_PT070H.grib2 2026-04-14 15:01 654K
20260414T12Z_MSC_RDPS_AirTemp_AGL-40m_RLatLon0.09_PT070H.grib2 2026-04-14 15:01 416K
20260414T12Z_MSC_RDPS_AirTemp_AGL-80m_RLatLon0.09_PT070H.grib2 2026-04-14 15:01 390K
20260414T12Z_MSC_RDPS_AirTemp_IsbL-0001_RLatLon0.09_PT070H.grib2 2026-04-14 15:01 227K
20260414T12Z_MSC_RDPS_AirTemp_IsbL-0005_RLatLon0.09_PT070H.grib2 2026-04-14 15:01 334K
20260414T12Z_MSC_RDPS_AirTemp_IsbL-0010_RLatLon0.09_PT070H.grib2 2026-04-14 15:01 306K
20260414T12Z_MSC_RDPS_AirTemp_IsbL-0020_RLatLon0.09_PT070H.grib2 2026-04-14 15:01 326K
20260414T12Z_MSC_RDPS_AirTemp_IsbL-0030_RLatLon0.09_PT070H.grib2 2026-04-14 15:01 386K
20260414T12Z_MSC_RDPS_AirTemp_IsbL-0050_RLatLon0.09_PT070H.grib2 2026-04-14 15:01 332K
20260414T12Z_MSC_RDPS_AirTemp_IsbL-0100_RLatLon0.09_PT070H.grib2 2026-04-14 15:01 396K
20260414T12Z_MSC_RDPS_AirTemp_IsbL-0150_RLatLon0.09_PT070H.grib2 2026-04-14 15:01 410K
20260414T12Z_MSC_RDPS_AirTemp_IsbL-0175_RLatLon0.09_PT070H.grib2 2026-04-14 15:01 410K
20260414T12Z_MSC_RDPS_AirTemp_IsbL-0200_RLatLon0.09_PT070H.grib2 2026-04-14 15:01 415K
20260414T12Z_MSC_RDPS_AirTemp_IsbL-0225_RLatLon0.09_PT070H.grib2 2026-04-14 15:01 418K
20260414T12Z_MSC_RDPS_AirTemp_IsbL-0250_RLatLon0.09_PT070H.grib2 2026-04-14 15:01 427K
20260414T12Z_MSC_RDPS_AirTemp_IsbL-0275_RLatLon0.09_PT070H.grib2 2026-04-14 15:01 408K
20260414T12Z_MSC_RDPS_AirTemp_IsbL-0300_RLatLon0.09_PT070H.grib2 2026-04-14 15:01 439K
20260414T12Z_MSC_RDPS_AirTemp_IsbL-0350_RLatLon0.09_PT070H.grib2 2026-04-14 15:01 424K
20260414T12Z_MSC_RDPS_AirTemp_IsbL-0400_RLatLon0.09_PT070H.grib2 2026-04-14 15:01 422K
20260414T12Z_MSC_RDPS_AirTemp_IsbL-0450_RLatLon0.09_PT070H.grib2 2026-04-14 15:01 392K
20260414T12Z_MSC_RDPS_AirTemp_IsbL-0500_RLatLon0.09_PT070H.grib2 2026-04-14 15:01 402K
20260414T12Z_MSC_RDPS_AirTemp_IsbL-0550_RLatLon0.09_PT070H.grib2 2026-04-14 15:01 421K
20260414T12Z_MSC_RDPS_AirTemp_IsbL-0600_RLatLon0.09_PT070H.grib2 2026-04-14 15:01 439K
20260414T12Z_MSC_RDPS_AirTemp_IsbL-0650_RLatLon0.09_PT070H.grib2 2026-04-14 15:01 452K
20260414T12Z_MSC_RDPS_AirTemp_IsbL-0700_RLatLon0.09_PT070H.grib2 2026-04-14 15:01 476K
20260414T12Z_MSC_RDPS_AirTemp_IsbL-0750_RLatLon0.09_PT070H.grib2 2026-04-14 15:01 516K
20260414T12Z_MSC_RDPS_AirTemp_IsbL-0800_RLatLon0.09_PT070H.grib2 2026-04-14 15:01 455K
20260414T12Z_MSC_RDPS_AirTemp_IsbL-0850_RLatLon0.09_PT070H.grib2 2026-04-14 15:01 505K
20260414T12Z_MSC_RDPS_AirTemp_IsbL-0875_RLatLon0.09_PT070H.grib2 2026-04-14 15:01 521K
20260414T12Z_MSC_RDPS_AirTemp_IsbL-0900_RLatLon0.09_PT070H.grib2 2026-04-14 15:01 530K
20260414T12Z_MSC_RDPS_AirTemp_IsbL-0925_RLatLon0.09_PT070H.grib2 2026-04-14 15:01 532K
20260414T12Z_MSC_RDPS_AirTemp_IsbL-0950_RLatLon0.09_PT070H.grib2 2026-04-14 15:01 529K
20260414T12Z_MSC_RDPS_AirTemp_IsbL-0970_RLatLon0.09_PT070H.grib2 2026-04-14 15:01 525K
20260414T12Z_MSC_RDPS_AirTemp_IsbL-0985_RLatLon0.09_PT070H.grib2 2026-04-14 15:01 516K
20260414T12Z_MSC_RDPS_AirTemp_IsbL-1000_RLatLon0.09_PT070H.grib2 2026-04-14 15:01 513K
20260414T12Z_MSC_RDPS_AirTemp_IsbL-1015_RLatLon0.09_PT070H.grib2 2026-04-14 15:01 512K
20260414T12Z_MSC_RDPS_Albedo_Sfc_RLatLon0.09_PT070H.grib2 2026-04-14 15:01 169K
20260414T12Z_MSC_RDPS_CAPE_Sfc_RLatLon0.09_PT070H.grib2 2026-04-14 15:01 1.7M
20260414T12Z_MSC_RDPS_CIN_Sfc_RLatLon0.09_PT070H.grib2 2026-04-14 15:01 1.1M
20260414T12Z_MSC_RDPS_CloudWater_EAtm_RLatLon0.09_PT070H.grib2 2026-04-14 15:01 213K
20260414T12Z_MSC_RDPS_ConvectivePrecip-Accum_Sfc_RLatLon0.09_PT070H.grib2 2026-04-14 15:01 1.1M
20260414T12Z_MSC_RDPS_DewPointDepression_AGL-2m_RLatLon0.09_PT070H.grib2 2026-04-14 15:01 386K
20260414T12Z_MSC_RDPS_DewPointDepression_IsbL-0001_RLatLon0.09_PT070H.grib2 2026-04-14 15:01 193
20260414T12Z_MSC_RDPS_DewPointDepression_IsbL-0005_RLatLon0.09_PT070H.grib2 2026-04-14 15:01 193
20260414T12Z_MSC_RDPS_DewPointDepression_IsbL-0010_RLatLon0.09_PT070H.grib2 2026-04-14 15:01 193
20260414T12Z_MSC_RDPS_DewPointDepression_IsbL-0020_RLatLon0.09_PT070H.grib2 2026-04-14 15:01 193
20260414T12Z_MSC_RDPS_DewPointDepression_IsbL-0030_RLatLon0.09_PT070H.grib2 2026-04-14 15:01 9.1K
20260414T12Z_MSC_RDPS_DewPointDepression_IsbL-0050_RLatLon0.09_PT070H.grib2 2026-04-14 15:01 105K
20260414T12Z_MSC_RDPS_DewPointDepression_IsbL-0100_RLatLon0.09_PT070H.grib2 2026-04-14 15:01 127K
20260414T12Z_MSC_RDPS_DewPointDepression_IsbL-0150_RLatLon0.09_PT070H.grib2 2026-04-14 15:01 143K
20260414T12Z_MSC_RDPS_DewPointDepression_IsbL-0175_RLatLon0.09_PT070H.grib2 2026-04-14 15:01 175K
20260414T12Z_MSC_RDPS_DewPointDepression_IsbL-0200_RLatLon0.09_PT070H.grib2 2026-04-14 15:01 205K
20260414T12Z_MSC_RDPS_DewPointDepression_IsbL-0225_RLatLon0.09_PT070H.grib2 2026-04-14 15:01 248K
20260414T12Z_MSC_RDPS_DewPointDepression_IsbL-0250_RLatLon0.09_PT070H.grib2 2026-04-14 15:01 294K
20260414T12Z_MSC_RDPS_DewPointDepression_IsbL-0275_RLatLon0.09_PT070H.grib2 2026-04-14 15:01 305K
20260414T12Z_MSC_RDPS_DewPointDepression_IsbL-0300_RLatLon0.09_PT070H.grib2 2026-04-14 15:01 321K
20260414T12Z_MSC_RDPS_DewPointDepression_IsbL-0350_RLatLon0.09_PT070H.grib2 2026-04-14 15:01 325K
20260414T12Z_MSC_RDPS_DewPointDepression_IsbL-0400_RLatLon0.09_PT070H.grib2 2026-04-14 15:01 331K
20260414T12Z_MSC_RDPS_DewPointDepression_IsbL-0450_RLatLon0.09_PT070H.grib2 2026-04-14 15:01 334K
20260414T12Z_MSC_RDPS_DewPointDepression_IsbL-0500_RLatLon0.09_PT070H.grib2 2026-04-14 15:01 342K
20260414T12Z_MSC_RDPS_DewPointDepression_IsbL-0550_RLatLon0.09_PT070H.grib2 2026-04-14 15:01 356K
20260414T12Z_MSC_RDPS_DewPointDepression_IsbL-0600_RLatLon0.09_PT070H.grib2 2026-04-14 15:01 368K
20260414T12Z_MSC_RDPS_DewPointDepression_IsbL-0650_RLatLon0.09_PT070H.grib2 2026-04-14 15:01 378K
20260414T12Z_MSC_RDPS_DewPointDepression_IsbL-0700_RLatLon0.09_PT070H.grib2 2026-04-14 15:01 390K
20260414T12Z_MSC_RDPS_DewPointDepression_IsbL-0750_RLatLon0.09_PT070H.grib2 2026-04-14 15:01 412K
20260414T12Z_MSC_RDPS_DewPointDepression_IsbL-0800_RLatLon0.09_PT070H.grib2 2026-04-14 15:01 444K
20260414T12Z_MSC_RDPS_DewPointDepression_IsbL-0850_RLatLon0.09_PT070H.grib2 2026-04-14 15:01 469K
20260414T12Z_MSC_RDPS_DewPointDepression_IsbL-0875_RLatLon0.09_PT070H.grib2 2026-04-14 15:01 463K
20260414T12Z_MSC_RDPS_DewPointDepression_IsbL-0900_RLatLon0.09_PT070H.grib2 2026-04-14 15:01 457K
20260414T12Z_MSC_RDPS_DewPointDepression_IsbL-0925_RLatLon0.09_PT070H.grib2 2026-04-14 15:01 446K
20260414T12Z_MSC_RDPS_DewPointDepression_IsbL-0950_RLatLon0.09_PT070H.grib2 2026-04-14 15:01 435K
20260414T12Z_MSC_RDPS_DewPointDepression_IsbL-0970_RLatLon0.09_PT070H.grib2 2026-04-14 15:01 430K
20260414T12Z_MSC_RDPS_DewPointDepression_IsbL-0985_RLatLon0.09_PT070H.grib2 2026-04-14 15:01 428K
20260414T12Z_MSC_RDPS_DewPointDepression_IsbL-1000_RLatLon0.09_PT070H.grib2 2026-04-14 15:01 427K
20260414T12Z_MSC_RDPS_DewPointDepression_IsbL-1015_RLatLon0.09_PT070H.grib2 2026-04-14 15:01 420K
20260414T12Z_MSC_RDPS_DewPoint_AGL-2m_RLatLon0.09_PT070H.grib2 2026-04-14 15:01 316K
20260414T12Z_MSC_RDPS_DownwardLongwaveRadiationFlux-Accum_Sfc_RLatLon0.09_PT070H.grib2 2026-04-14 15:01 419K
20260414T12Z_MSC_RDPS_DownwardShortwaveRadiationFlux-Accum_NTAtm_RLatLon0.09_PT070H.grib2 2026-04-14 15:01 102K
20260414T12Z_MSC_RDPS_DownwardShortwaveRadiationFlux-Accum_Sfc_RLatLon0.09_PT070H.grib2 2026-04-14 15:01 595K
20260414T12Z_MSC_RDPS_FreezingRain-Accum1h_Sfc_RLatLon0.09_PT070H.grib2 2026-04-14 15:01 37K
20260414T12Z_MSC_RDPS_FreezingRain-Accum_Sfc_RLatLon0.09_PT070H.grib2 2026-04-14 15:01 173K
20260414T12Z_MSC_RDPS_GeopotentialHeight_IsbL-0001_RLatLon0.09_PT070H.grib2 2026-04-14 15:01 210K
20260414T12Z_MSC_RDPS_GeopotentialHeight_IsbL-0005_RLatLon0.09_PT070H.grib2 2026-04-14 15:01 237K
20260414T12Z_MSC_RDPS_GeopotentialHeight_IsbL-0010_RLatLon0.09_PT070H.grib2 2026-04-14 15:01 312K
20260414T12Z_MSC_RDPS_GeopotentialHeight_IsbL-0020_RLatLon0.09_PT070H.grib2 2026-04-14 15:01 312K
20260414T12Z_MSC_RDPS_GeopotentialHeight_IsbL-0030_RLatLon0.09_PT070H.grib2 2026-04-14 15:01 314K
20260414T12Z_MSC_RDPS_GeopotentialHeight_IsbL-0050_RLatLon0.09_PT070H.grib2 2026-04-14 15:01 241K
20260414T12Z_MSC_RDPS_GeopotentialHeight_IsbL-0100_RLatLon0.09_PT070H.grib2 2026-04-14 15:01 225K
20260414T12Z_MSC_RDPS_GeopotentialHeight_IsbL-0150_RLatLon0.09_PT070H.grib2 2026-04-14 15:01 265K
20260414T12Z_MSC_RDPS_GeopotentialHeight_IsbL-0175_RLatLon0.09_PT070H.grib2 2026-04-14 15:01 267K
20260414T12Z_MSC_RDPS_GeopotentialHeight_IsbL-0200_RLatLon0.09_PT070H.grib2 2026-04-14 15:01 268K
20260414T12Z_MSC_RDPS_GeopotentialHeight_IsbL-0225_RLatLon0.09_PT070H.grib2 2026-04-14 15:01 270K
20260414T12Z_MSC_RDPS_GeopotentialHeight_IsbL-0250_RLatLon0.09_PT070H.grib2 2026-04-14 15:01 271K
20260414T12Z_MSC_RDPS_GeopotentialHeight_IsbL-0275_RLatLon0.09_PT070H.grib2 2026-04-14 15:01 270K
20260414T12Z_MSC_RDPS_GeopotentialHeight_IsbL-0300_RLatLon0.09_PT070H.grib2 2026-04-14 15:01 269K
20260414T12Z_MSC_RDPS_GeopotentialHeight_IsbL-0350_RLatLon0.09_PT070H.grib2 2026-04-14 15:01 264K
20260414T12Z_MSC_RDPS_GeopotentialHeight_IsbL-0400_RLatLon0.09_PT070H.grib2 2026-04-14 15:01 228K
20260414T12Z_MSC_RDPS_GeopotentialHeight_IsbL-0450_RLatLon0.09_PT070H.grib2 2026-04-14 15:01 225K
20260414T12Z_MSC_RDPS_GeopotentialHeight_IsbL-0500_RLatLon0.09_PT070H.grib2 2026-04-14 15:01 291K
20260414T12Z_MSC_RDPS_GeopotentialHeight_IsbL-0550_RLatLon0.09_PT070H.grib2 2026-04-14 15:01 287K
20260414T12Z_MSC_RDPS_GeopotentialHeight_IsbL-0600_RLatLon0.09_PT070H.grib2 2026-04-14 15:01 284K
20260414T12Z_MSC_RDPS_GeopotentialHeight_IsbL-0650_RLatLon0.09_PT070H.grib2 2026-04-14 15:01 281K
20260414T12Z_MSC_RDPS_GeopotentialHeight_IsbL-0700_RLatLon0.09_PT070H.grib2 2026-04-14 15:01 252K
20260414T12Z_MSC_RDPS_GeopotentialHeight_IsbL-0750_RLatLon0.09_PT070H.grib2 2026-04-14 15:01 254K
20260414T12Z_MSC_RDPS_GeopotentialHeight_IsbL-0800_RLatLon0.09_PT070H.grib2 2026-04-14 15:01 345K
20260414T12Z_MSC_RDPS_GeopotentialHeight_IsbL-0850_RLatLon0.09_PT070H.grib2 2026-04-14 15:01 354K
20260414T12Z_MSC_RDPS_GeopotentialHeight_IsbL-0875_RLatLon0.09_PT070H.grib2 2026-04-14 15:01 356K
20260414T12Z_MSC_RDPS_GeopotentialHeight_IsbL-0900_RLatLon0.09_PT070H.grib2 2026-04-14 15:01 362K
20260414T12Z_MSC_RDPS_GeopotentialHeight_IsbL-0925_RLatLon0.09_PT070H.grib2 2026-04-14 15:01 399K
20260414T12Z_MSC_RDPS_GeopotentialHeight_IsbL-0950_RLatLon0.09_PT070H.grib2 2026-04-14 15:01 400K
20260414T12Z_MSC_RDPS_GeopotentialHeight_IsbL-0970_RLatLon0.09_PT070H.grib2 2026-04-14 15:01 404K
20260414T12Z_MSC_RDPS_GeopotentialHeight_IsbL-0985_RLatLon0.09_PT070H.grib2 2026-04-14 15:01 413K
20260414T12Z_MSC_RDPS_GeopotentialHeight_IsbL-1000_RLatLon0.09_PT070H.grib2 2026-04-14 15:01 427K
20260414T12Z_MSC_RDPS_GeopotentialHeight_IsbL-1015_RLatLon0.09_PT070H.grib2 2026-04-14 15:01 443K
20260414T12Z_MSC_RDPS_Humidex_Sfc_RLatLon0.09_PT070H.grib2 2026-04-14 15:01 2.4M
20260414T12Z_MSC_RDPS_IcePellets-Accum1h_Sfc_RLatLon0.09_PT070H.grib2 2026-04-14 15:01 11K
20260414T12Z_MSC_RDPS_IcePellets-Accum_Sfc_RLatLon0.09_PT070H.grib2 2026-04-14 15:01 39K
20260414T12Z_MSC_RDPS_KIndex_Sfc_RLatLon0.09_PT070H.grib2 2026-04-14 15:01 2.5M
20260414T12Z_MSC_RDPS_LatentHeatNetFlux_Sfc_RLatLon0.09_PT070H.grib2 2026-04-14 15:01 395K
20260414T12Z_MSC_RDPS_LiftedIndex-MU-VT_IsbL-0500_RLatLon0.09_PT070H.grib2 2026-04-14 15:01 2.4M
20260414T12Z_MSC_RDPS_NetLongwaveRadiationFlux-Accum_Sfc_RLatLon0.09_PT070H.grib2 2026-04-14 15:01 464K
20260414T12Z_MSC_RDPS_NetShortwaveRadiationFlux-Accum_Sfc_RLatLon0.09_PT070H.grib2 2026-04-14 15:01 604K
20260414T12Z_MSC_RDPS_PlanetaryBoundaryLayerHeight_Sfc_RLatLon0.09_PT070H.grib2 2026-04-14 15:01 1.1M
20260414T12Z_MSC_RDPS_Precip-Accum1h_Sfc_RLatLon0.09_PT070H.grib2 2026-04-14 15:01 1.3M
20260414T12Z_MSC_RDPS_Precip-Accum_Sfc_RLatLon0.09_PT070H.grib2 2026-04-14 15:01 2.1M
20260414T12Z_MSC_RDPS_PrecipRate_Sfc_RLatLon0.09_PT070H.grib2 2026-04-14 15:01 181K
20260414T12Z_MSC_RDPS_PrecipType-Instant_Sfc_RLatLon0.09_PT070H.grib2 2026-04-14 15:01 602K
20260414T12Z_MSC_RDPS_Pressure-Trend3h_Sfc_RLatLon0.09_PT070H.grib2 2026-04-14 15:01 1.2M
20260414T12Z_MSC_RDPS_Pressure_MSL_RLatLon0.09_PT070H.grib2 2026-04-14 15:01 294K
20260414T12Z_MSC_RDPS_Pressure_PVU-1.5_RLatLon0.09_PT070H.grib2 2026-04-14 15:01 2.3M
20260414T12Z_MSC_RDPS_Pressure_PVU-1_RLatLon0.09_PT070H.grib2 2026-04-14 15:01 2.4M
20260414T12Z_MSC_RDPS_Pressure_PVU-2_RLatLon0.09_PT070H.grib2 2026-04-14 15:01 2.2M
20260414T12Z_MSC_RDPS_Pressure_Sfc_RLatLon0.09_PT070H.grib2 2026-04-14 15:01 500K
20260414T12Z_MSC_RDPS_RadiativeTemp_Sfc_RLatLon0.09_PT070H.grib2 2026-04-14 15:01 315K
20260414T12Z_MSC_RDPS_Rain-Accum1h_Sfc_RLatLon0.09_PT070H.grib2 2026-04-14 15:01 624K
20260414T12Z_MSC_RDPS_Rain-Accum_Sfc_RLatLon0.09_PT070H.grib2 2026-04-14 15:01 1.6M
20260414T12Z_MSC_RDPS_RelativeHumidity_AGL-2m_RLatLon0.09_PT070H.grib2 2026-04-14 15:01 1.0M
20260414T12Z_MSC_RDPS_RelativeHumidity_IsbL-0010_RLatLon0.09_PT070H.grib2 2026-04-14 15:01 641K
20260414T12Z_MSC_RDPS_RelativeHumidity_IsbL-0020_RLatLon0.09_PT070H.grib2 2026-04-14 15:01 541K
20260414T12Z_MSC_RDPS_RelativeHumidity_IsbL-0030_RLatLon0.09_PT070H.grib2 2026-04-14 15:01 362K
20260414T12Z_MSC_RDPS_RelativeHumidity_IsbL-0050_RLatLon0.09_PT070H.grib2 2026-04-14 15:01 345K
20260414T12Z_MSC_RDPS_RelativeHumidity_IsbL-0100_RLatLon0.09_PT070H.grib2 2026-04-14 15:01 264K
20260414T12Z_MSC_RDPS_RelativeHumidity_IsbL-0150_RLatLon0.09_PT070H.grib2 2026-04-14 15:01 374K
20260414T12Z_MSC_RDPS_RelativeHumidity_IsbL-0175_RLatLon0.09_PT070H.grib2 2026-04-14 15:01 459K
20260414T12Z_MSC_RDPS_RelativeHumidity_IsbL-0200_RLatLon0.09_PT070H.grib2 2026-04-14 15:01 539K
20260414T12Z_MSC_RDPS_RelativeHumidity_IsbL-0225_RLatLon0.09_PT070H.grib2 2026-04-14 15:01 611K
20260414T12Z_MSC_RDPS_RelativeHumidity_IsbL-0250_RLatLon0.09_PT070H.grib2 2026-04-14 15:01 687K
20260414T12Z_MSC_RDPS_RelativeHumidity_IsbL-0275_RLatLon0.09_PT070H.grib2 2026-04-14 15:01 717K
20260414T12Z_MSC_RDPS_RelativeHumidity_IsbL-0300_RLatLon0.09_PT070H.grib2 2026-04-14 15:01 762K
20260414T12Z_MSC_RDPS_RelativeHumidity_IsbL-0350_RLatLon0.09_PT070H.grib2 2026-04-14 15:01 777K
20260414T12Z_MSC_RDPS_RelativeHumidity_IsbL-0400_RLatLon0.09_PT070H.grib2 2026-04-14 15:01 783K
20260414T12Z_MSC_RDPS_RelativeHumidity_IsbL-0450_RLatLon0.09_PT070H.grib2 2026-04-14 15:01 786K
20260414T12Z_MSC_RDPS_RelativeHumidity_IsbL-0500_RLatLon0.09_PT070H.grib2 2026-04-14 15:01 794K
20260414T12Z_MSC_RDPS_RelativeHumidity_IsbL-0550_RLatLon0.09_PT070H.grib2 2026-04-14 15:01 816K
20260414T12Z_MSC_RDPS_RelativeHumidity_IsbL-0600_RLatLon0.09_PT070H.grib2 2026-04-14 15:01 845K
20260414T12Z_MSC_RDPS_RelativeHumidity_IsbL-0650_RLatLon0.09_PT070H.grib2 2026-04-14 15:01 847K
20260414T12Z_MSC_RDPS_RelativeHumidity_IsbL-0700_RLatLon0.09_PT070H.grib2 2026-04-14 15:01 869K
20260414T12Z_MSC_RDPS_RelativeHumidity_IsbL-0750_RLatLon0.09_PT070H.grib2 2026-04-14 15:01 923K
20260414T12Z_MSC_RDPS_RelativeHumidity_IsbL-0800_RLatLon0.09_PT070H.grib2 2026-04-14 15:01 1.0M
20260414T12Z_MSC_RDPS_RelativeHumidity_IsbL-0850_RLatLon0.09_PT070H.grib2 2026-04-14 15:01 1.0M
20260414T12Z_MSC_RDPS_RelativeHumidity_IsbL-0875_RLatLon0.09_PT070H.grib2 2026-04-14 15:01 1.1M
20260414T12Z_MSC_RDPS_RelativeHumidity_IsbL-0900_RLatLon0.09_PT070H.grib2 2026-04-14 15:01 1.1M
20260414T12Z_MSC_RDPS_RelativeHumidity_IsbL-0925_RLatLon0.09_PT070H.grib2 2026-04-14 15:01 1.1M
20260414T12Z_MSC_RDPS_RelativeHumidity_IsbL-0950_RLatLon0.09_PT070H.grib2 2026-04-14 15:01 1.1M
20260414T12Z_MSC_RDPS_RelativeHumidity_IsbL-0970_RLatLon0.09_PT070H.grib2 2026-04-14 15:01 1.1M
20260414T12Z_MSC_RDPS_RelativeHumidity_IsbL-0985_RLatLon0.09_PT070H.grib2 2026-04-14 15:01 1.0M
20260414T12Z_MSC_RDPS_RelativeHumidity_IsbL-1000_RLatLon0.09_PT070H.grib2 2026-04-14 15:01 1.0M
20260414T12Z_MSC_RDPS_RelativeHumidity_IsbL-1015_RLatLon0.09_PT070H.grib2 2026-04-14 15:01 1.0M
20260414T12Z_MSC_RDPS_Runoff-Accum_Sfc_RLatLon0.09_PT070H.grib2 2026-04-14 15:01 47K
20260414T12Z_MSC_RDPS_SWEATIndex_Sfc_RLatLon0.09_PT070H.grib2 2026-04-14 15:01 2.4M
20260414T12Z_MSC_RDPS_SeeingIndex_EAtm_RLatLon0.09_PT070H.grib2 2026-04-14 15:01 1.1M
20260414T12Z_MSC_RDPS_SensibleHeatNetFlux_Sfc_RLatLon0.09_PT070H.grib2 2026-04-14 15:01 383K
20260414T12Z_MSC_RDPS_ShowalterIndex_IsbL-0500_RLatLon0.09_PT070H.grib2 2026-04-14 15:01 2.6M
20260414T12Z_MSC_RDPS_SkyTransparencyIndex_EAtm_RLatLon0.09_PT070H.grib2 2026-04-14 15:01 715K
20260414T12Z_MSC_RDPS_Snow-Accum1h_Sfc_RLatLon0.09_PT070H.grib2 2026-04-14 15:01 598K
20260414T12Z_MSC_RDPS_Snow-Accum_Sfc_RLatLon0.09_PT070H.grib2 2026-04-14 15:01 877K
20260414T12Z_MSC_RDPS_SnowDensity_Sfc_RLatLon0.09_PT070H.grib2 2026-04-14 15:01 180K
20260414T12Z_MSC_RDPS_SnowDepth_Sfc_RLatLon0.09_PT070H.grib2 2026-04-14 15:01 743K
20260414T12Z_MSC_RDPS_SoilTemp_DBS-0to10cm_RLatLon0.09_PT070H.grib2 2026-04-14 15:01 237K
20260414T12Z_MSC_RDPS_SoilTemp_Sfc_RLatLon0.09_PT070H.grib2 2026-04-14 15:01 271K
20260414T12Z_MSC_RDPS_SoilVolumetricIceContent_Sfc_RLatLon0.09_PT070H.grib2 2026-04-14 15:01 177K
20260414T12Z_MSC_RDPS_SoilVolumetricWaterContent_DBS-0to10cm_RLatLon0.09_PT070H.grib2 2026-04-14 15:01 245K
20260414T12Z_MSC_RDPS_SoilVolumetricWaterContent_DBS-0to1cm_RLatLon0.09_PT070H.grib2 2026-04-14 15:01 337K
20260414T12Z_MSC_RDPS_SpecificHumidity_AGL-120m_RLatLon0.09_PT070H.grib2 2026-04-14 15:01 480K
20260414T12Z_MSC_RDPS_SpecificHumidity_AGL-2m_RLatLon0.09_PT070H.grib2 2026-04-14 15:01 645K
20260414T12Z_MSC_RDPS_SpecificHumidity_AGL-40m_RLatLon0.09_PT070H.grib2 2026-04-14 15:01 485K
20260414T12Z_MSC_RDPS_SpecificHumidity_AGL-80m_RLatLon0.09_PT070H.grib2 2026-04-14 15:01 481K
20260414T12Z_MSC_RDPS_SpecificHumidity_IsbL-0001_RLatLon0.09_PT070H.grib2 2026-04-14 15:01 295K
20260414T12Z_MSC_RDPS_SpecificHumidity_IsbL-0005_RLatLon0.09_PT070H.grib2 2026-04-14 15:01 337K
20260414T12Z_MSC_RDPS_SpecificHumidity_IsbL-0010_RLatLon0.09_PT070H.grib2 2026-04-14 15:01 368K
20260414T12Z_MSC_RDPS_SpecificHumidity_IsbL-0020_RLatLon0.09_PT070H.grib2 2026-04-14 15:01 371K
20260414T12Z_MSC_RDPS_SpecificHumidity_IsbL-0030_RLatLon0.09_PT070H.grib2 2026-04-14 15:01 423K
20260414T12Z_MSC_RDPS_SpecificHumidity_IsbL-0050_RLatLon0.09_PT070H.grib2 2026-04-14 15:01 376K
20260414T12Z_MSC_RDPS_SpecificHumidity_IsbL-0100_RLatLon0.09_PT070H.grib2 2026-04-14 15:01 530K
20260414T12Z_MSC_RDPS_SpecificHumidity_IsbL-0150_RLatLon0.09_PT070H.grib2 2026-04-14 15:01 456K
20260414T12Z_MSC_RDPS_SpecificHumidity_IsbL-0175_RLatLon0.09_PT070H.grib2 2026-04-14 15:01 526K
20260414T12Z_MSC_RDPS_SpecificHumidity_IsbL-0200_RLatLon0.09_PT070H.grib2 2026-04-14 15:01 434K
20260414T12Z_MSC_RDPS_SpecificHumidity_IsbL-0225_RLatLon0.09_PT070H.grib2 2026-04-14 15:01 438K
20260414T12Z_MSC_RDPS_SpecificHumidity_IsbL-0250_RLatLon0.09_PT070H.grib2 2026-04-14 15:01 548K
20260414T12Z_MSC_RDPS_SpecificHumidity_IsbL-0275_RLatLon0.09_PT070H.grib2 2026-04-14 15:01 463K
20260414T12Z_MSC_RDPS_SpecificHumidity_IsbL-0300_RLatLon0.09_PT070H.grib2 2026-04-14 15:01 533K
20260414T12Z_MSC_RDPS_SpecificHumidity_IsbL-0350_RLatLon0.09_PT070H.grib2 2026-04-14 15:01 523K
20260414T12Z_MSC_RDPS_SpecificHumidity_IsbL-0400_RLatLon0.09_PT070H.grib2 2026-04-14 15:01 501K
20260414T12Z_MSC_RDPS_SpecificHumidity_IsbL-0450_RLatLon0.09_PT070H.grib2 2026-04-14 15:01 551K
20260414T12Z_MSC_RDPS_SpecificHumidity_IsbL-0500_RLatLon0.09_PT070H.grib2 2026-04-14 15:01 488K
20260414T12Z_MSC_RDPS_SpecificHumidity_IsbL-0550_RLatLon0.09_PT070H.grib2 2026-04-14 15:01 563K
20260414T12Z_MSC_RDPS_SpecificHumidity_IsbL-0600_RLatLon0.09_PT070H.grib2 2026-04-14 15:01 614K
20260414T12Z_MSC_RDPS_SpecificHumidity_IsbL-0650_RLatLon0.09_PT070H.grib2 2026-04-14 15:01 530K
20260414T12Z_MSC_RDPS_SpecificHumidity_IsbL-0700_RLatLon0.09_PT070H.grib2 2026-04-14 15:01 572K
20260414T12Z_MSC_RDPS_SpecificHumidity_IsbL-0750_RLatLon0.09_PT070H.grib2 2026-04-14 15:01 631K
20260414T12Z_MSC_RDPS_SpecificHumidity_IsbL-0800_RLatLon0.09_PT070H.grib2 2026-04-14 15:01 706K
20260414T12Z_MSC_RDPS_SpecificHumidity_IsbL-0850_RLatLon0.09_PT070H.grib2 2026-04-14 15:01 784K
20260414T12Z_MSC_RDPS_SpecificHumidity_IsbL-0875_RLatLon0.09_PT070H.grib2 2026-04-14 15:01 803K
20260414T12Z_MSC_RDPS_SpecificHumidity_IsbL-0900_RLatLon0.09_PT070H.grib2 2026-04-14 15:01 818K
20260414T12Z_MSC_RDPS_SpecificHumidity_IsbL-0925_RLatLon0.09_PT070H.grib2 2026-04-14 15:01 824K
20260414T12Z_MSC_RDPS_SpecificHumidity_IsbL-0950_RLatLon0.09_PT070H.grib2 2026-04-14 15:01 822K
20260414T12Z_MSC_RDPS_SpecificHumidity_IsbL-0970_RLatLon0.09_PT070H.grib2 2026-04-14 15:01 818K
20260414T12Z_MSC_RDPS_SpecificHumidity_IsbL-0985_RLatLon0.09_PT070H.grib2 2026-04-14 15:01 811K
20260414T12Z_MSC_RDPS_SpecificHumidity_IsbL-1000_RLatLon0.09_PT070H.grib2 2026-04-14 15:01 805K
20260414T12Z_MSC_RDPS_SpecificHumidity_IsbL-1015_RLatLon0.09_PT070H.grib2 2026-04-14 15:01 656K
20260414T12Z_MSC_RDPS_SpecificHumidity_Sfc_RLatLon0.09_PT070H.grib2 2026-04-14 15:01 282K
20260414T12Z_MSC_RDPS_StormRelativeHelicity_EtaL-10000_RLatLon0.09_PT070H.grib2 2026-04-14 15:01 1.1M
20260414T12Z_MSC_RDPS_StormSeverityIndex_EtaL-10000_RLatLon0.09_PT070H.grib2 2026-04-14 15:01 1.2M
20260414T12Z_MSC_RDPS_Thickness_IsbL-0850to0700_RLatLon0.09_PT070H.grib2 2026-04-14 15:01 174K
20260414T12Z_MSC_RDPS_Thickness_IsbL-1000to0500_RLatLon0.09_PT070H.grib2 2026-04-14 15:01 199K
20260414T12Z_MSC_RDPS_Thickness_IsbL-1000to0850_RLatLon0.09_PT070H.grib2 2026-04-14 15:01 261K
20260414T12Z_MSC_RDPS_TotalCloudCover_Sfc_RLatLon0.09_PT070H.grib2 2026-04-14 15:01 679K
20260414T12Z_MSC_RDPS_TotalTotalsIndex_Sfc_RLatLon0.09_PT070H.grib2 2026-04-14 15:01 2.4M
20260414T12Z_MSC_RDPS_UVIndex-ClearSky_Sfc_RLatLon0.09_PT070H.grib2 2026-04-14 15:01 112K
20260414T12Z_MSC_RDPS_UVIndex_Sfc_RLatLon0.09_PT070H.grib2 2026-04-14 15:01 224K
20260414T12Z_MSC_RDPS_UpwardLongwaveRadiationFlux_NTAtm_RLatLon0.09_PT070H.grib2 2026-04-14 15:01 486K
20260414T12Z_MSC_RDPS_UpwardShortwaveRadiationFlux_NTAtm_RLatLon0.09_PT070H.grib2 2026-04-14 15:01 181K
20260414T12Z_MSC_RDPS_VerticalVelocity_IsbL-0250_RLatLon0.09_PT070H.grib2 2026-04-14 15:01 554K
20260414T12Z_MSC_RDPS_VerticalVelocity_IsbL-0500_RLatLon0.09_PT070H.grib2 2026-04-14 15:01 541K
20260414T12Z_MSC_RDPS_VerticalVelocity_IsbL-0700_RLatLon0.09_PT070H.grib2 2026-04-14 15:01 585K
20260414T12Z_MSC_RDPS_VerticalVelocity_IsbL-0850_RLatLon0.09_PT070H.grib2 2026-04-14 15:01 688K
20260414T12Z_MSC_RDPS_VerticalWindShear_EtaL-6500_RLatLon0.09_PT070H.grib2 2026-04-14 15:01 1.2M
20260414T12Z_MSC_RDPS_WindChill_Sfc_RLatLon0.09_PT070H.grib2 2026-04-14 15:01 1.3M
20260414T12Z_MSC_RDPS_WindDir_AGL-10m_RLatLon0.09_PT070H.grib2 2026-04-14 15:01 1.0M
20260414T12Z_MSC_RDPS_WindDir_AGL-120m_RLatLon0.09_PT070H.grib2 2026-04-14 15:01 616K
20260414T12Z_MSC_RDPS_WindDir_AGL-40m_RLatLon0.09_PT070H.grib2 2026-04-14 15:01 657K
20260414T12Z_MSC_RDPS_WindDir_AGL-80m_RLatLon0.09_PT070H.grib2 2026-04-14 15:01 631K
20260414T12Z_MSC_RDPS_WindDir_IsbL-0001_RLatLon0.09_PT070H.grib2 2026-04-14 15:01 266K
20260414T12Z_MSC_RDPS_WindDir_IsbL-0005_RLatLon0.09_PT070H.grib2 2026-04-14 15:01 340K
20260414T12Z_MSC_RDPS_WindDir_IsbL-0010_RLatLon0.09_PT070H.grib2 2026-04-14 15:01 352K
20260414T12Z_MSC_RDPS_WindDir_IsbL-0020_RLatLon0.09_PT070H.grib2 2026-04-14 15:01 382K
20260414T12Z_MSC_RDPS_WindDir_IsbL-0030_RLatLon0.09_PT070H.grib2 2026-04-14 15:01 378K
20260414T12Z_MSC_RDPS_WindDir_IsbL-0050_RLatLon0.09_PT070H.grib2 2026-04-14 15:01 393K
20260414T12Z_MSC_RDPS_WindDir_IsbL-0100_RLatLon0.09_PT070H.grib2 2026-04-14 15:01 391K
20260414T12Z_MSC_RDPS_WindDir_IsbL-0150_RLatLon0.09_PT070H.grib2 2026-04-14 15:01 378K
20260414T12Z_MSC_RDPS_WindDir_IsbL-0175_RLatLon0.09_PT070H.grib2 2026-04-14 15:01 397K
20260414T12Z_MSC_RDPS_WindDir_IsbL-0200_RLatLon0.09_PT070H.grib2 2026-04-14 15:01 413K
20260414T12Z_MSC_RDPS_WindDir_IsbL-0225_RLatLon0.09_PT070H.grib2 2026-04-14 15:01 421K
20260414T12Z_MSC_RDPS_WindDir_IsbL-0250_RLatLon0.09_PT070H.grib2 2026-04-14 15:01 428K
20260414T12Z_MSC_RDPS_WindDir_IsbL-0275_RLatLon0.09_PT070H.grib2 2026-04-14 15:01 454K
20260414T12Z_MSC_RDPS_WindDir_IsbL-0300_RLatLon0.09_PT070H.grib2 2026-04-14 15:01 456K
20260414T12Z_MSC_RDPS_WindDir_IsbL-0350_RLatLon0.09_PT070H.grib2 2026-04-14 15:01 473K
20260414T12Z_MSC_RDPS_WindDir_IsbL-0400_RLatLon0.09_PT070H.grib2 2026-04-14 15:01 495K
20260414T12Z_MSC_RDPS_WindDir_IsbL-0450_RLatLon0.09_PT070H.grib2 2026-04-14 15:01 512K
20260414T12Z_MSC_RDPS_WindDir_IsbL-0500_RLatLon0.09_PT070H.grib2 2026-04-14 15:01 540K
20260414T12Z_MSC_RDPS_WindDir_IsbL-0550_RLatLon0.09_PT070H.grib2 2026-04-14 15:01 564K
20260414T12Z_MSC_RDPS_WindDir_IsbL-0600_RLatLon0.09_PT070H.grib2 2026-04-14 15:01 589K
20260414T12Z_MSC_RDPS_WindDir_IsbL-0650_RLatLon0.09_PT070H.grib2 2026-04-14 15:01 631K
20260414T12Z_MSC_RDPS_WindDir_IsbL-0700_RLatLon0.09_PT070H.grib2 2026-04-14 15:01 674K
20260414T12Z_MSC_RDPS_WindDir_IsbL-0750_RLatLon0.09_PT070H.grib2 2026-04-14 15:01 720K
20260414T12Z_MSC_RDPS_WindDir_IsbL-0800_RLatLon0.09_PT070H.grib2 2026-04-14 15:01 776K
20260414T12Z_MSC_RDPS_WindDir_IsbL-0850_RLatLon0.09_PT070H.grib2 2026-04-14 15:01 849K
20260414T12Z_MSC_RDPS_WindDir_IsbL-0875_RLatLon0.09_PT070H.grib2 2026-04-14 15:01 881K
20260414T12Z_MSC_RDPS_WindDir_IsbL-0900_RLatLon0.09_PT070H.grib2 2026-04-14 15:01 906K
20260414T12Z_MSC_RDPS_WindDir_IsbL-0925_RLatLon0.09_PT070H.grib2 2026-04-14 15:01 919K
20260414T12Z_MSC_RDPS_WindDir_IsbL-0950_RLatLon0.09_PT070H.grib2 2026-04-14 15:01 925K
20260414T12Z_MSC_RDPS_WindDir_IsbL-0970_RLatLon0.09_PT070H.grib2 2026-04-14 15:01 934K
20260414T12Z_MSC_RDPS_WindDir_IsbL-0985_RLatLon0.09_PT070H.grib2 2026-04-14 15:01 948K
20260414T12Z_MSC_RDPS_WindDir_IsbL-1000_RLatLon0.09_PT070H.grib2 2026-04-14 15:01 969K
20260414T12Z_MSC_RDPS_WindDir_IsbL-1015_RLatLon0.09_PT070H.grib2 2026-04-14 15:01 1.0M
20260414T12Z_MSC_RDPS_WindGust-Max_AGL-10m_RLatLon0.09_PT070H.grib2 2026-04-14 15:01 1.0M
20260414T12Z_MSC_RDPS_WindGust-Min_AGL-10m_RLatLon0.09_PT070H.grib2 2026-04-14 15:01 1.0M
20260414T12Z_MSC_RDPS_WindGust_AGL-10m_RLatLon0.09_PT070H.grib2 2026-04-14 15:01 1.0M
20260414T12Z_MSC_RDPS_WindSpeed_AGL-10m_RLatLon0.09_PT070H.grib2 2026-04-14 15:01 857K
20260414T12Z_MSC_RDPS_WindSpeed_AGL-120m_RLatLon0.09_PT070H.grib2 2026-04-14 15:01 551K
20260414T12Z_MSC_RDPS_WindSpeed_AGL-40m_RLatLon0.09_PT070H.grib2 2026-04-14 15:01 554K
20260414T12Z_MSC_RDPS_WindSpeed_AGL-80m_RLatLon0.09_PT070H.grib2 2026-04-14 15:01 552K
20260414T12Z_MSC_RDPS_WindSpeed_IsbL-0001_RLatLon0.09_PT070H.grib2 2026-04-14 15:01 294K
20260414T12Z_MSC_RDPS_WindSpeed_IsbL-0005_RLatLon0.09_PT070H.grib2 2026-04-14 15:01 338K
20260414T12Z_MSC_RDPS_WindSpeed_IsbL-0010_RLatLon0.09_PT070H.grib2 2026-04-14 15:01 351K
20260414T12Z_MSC_RDPS_WindSpeed_IsbL-0020_RLatLon0.09_PT070H.grib2 2026-04-14 15:01 370K
20260414T12Z_MSC_RDPS_WindSpeed_IsbL-0030_RLatLon0.09_PT070H.grib2 2026-04-14 15:01 338K
20260414T12Z_MSC_RDPS_WindSpeed_IsbL-0050_RLatLon0.09_PT070H.grib2 2026-04-14 15:01 373K
20260414T12Z_MSC_RDPS_WindSpeed_IsbL-0100_RLatLon0.09_PT070H.grib2 2026-04-14 15:01 489K
20260414T12Z_MSC_RDPS_WindSpeed_IsbL-0150_RLatLon0.09_PT070H.grib2 2026-04-14 15:01 370K
20260414T12Z_MSC_RDPS_WindSpeed_IsbL-0175_RLatLon0.09_PT070H.grib2 2026-04-14 15:01 396K
20260414T12Z_MSC_RDPS_WindSpeed_IsbL-0200_RLatLon0.09_PT070H.grib2 2026-04-14 15:01 433K
20260414T12Z_MSC_RDPS_WindSpeed_IsbL-0225_RLatLon0.09_PT070H.grib2 2026-04-14 15:01 443K
20260414T12Z_MSC_RDPS_WindSpeed_IsbL-0250_RLatLon0.09_PT070H.grib2 2026-04-14 15:01 450K
20260414T12Z_MSC_RDPS_WindSpeed_IsbL-0275_RLatLon0.09_PT070H.grib2 2026-04-14 15:01 470K
20260414T12Z_MSC_RDPS_WindSpeed_IsbL-0300_RLatLon0.09_PT070H.grib2 2026-04-14 15:01 468K
20260414T12Z_MSC_RDPS_WindSpeed_IsbL-0350_RLatLon0.09_PT070H.grib2 2026-04-14 15:01 477K
20260414T12Z_MSC_RDPS_WindSpeed_IsbL-0400_RLatLon0.09_PT070H.grib2 2026-04-14 15:01 460K
20260414T12Z_MSC_RDPS_WindSpeed_IsbL-0450_RLatLon0.09_PT070H.grib2 2026-04-14 15:01 456K
20260414T12Z_MSC_RDPS_WindSpeed_IsbL-0500_RLatLon0.09_PT070H.grib2 2026-04-14 15:01 572K
20260414T12Z_MSC_RDPS_WindSpeed_IsbL-0550_RLatLon0.09_PT070H.grib2 2026-04-14 15:01 573K
20260414T12Z_MSC_RDPS_WindSpeed_IsbL-0600_RLatLon0.09_PT070H.grib2 2026-04-14 15:01 626K
20260414T12Z_MSC_RDPS_WindSpeed_IsbL-0650_RLatLon0.09_PT070H.grib2 2026-04-14 15:01 647K
20260414T12Z_MSC_RDPS_WindSpeed_IsbL-0700_RLatLon0.09_PT070H.grib2 2026-04-14 15:01 669K
20260414T12Z_MSC_RDPS_WindSpeed_IsbL-0750_RLatLon0.09_PT070H.grib2 2026-04-14 15:01 658K
20260414T12Z_MSC_RDPS_WindSpeed_IsbL-0800_RLatLon0.09_PT070H.grib2 2026-04-14 15:01 708K
20260414T12Z_MSC_RDPS_WindSpeed_IsbL-0850_RLatLon0.09_PT070H.grib2 2026-04-14 15:01 767K
20260414T12Z_MSC_RDPS_WindSpeed_IsbL-0875_RLatLon0.09_PT070H.grib2 2026-04-14 15:01 791K
20260414T12Z_MSC_RDPS_WindSpeed_IsbL-0900_RLatLon0.09_PT070H.grib2 2026-04-14 15:01 812K
20260414T12Z_MSC_RDPS_WindSpeed_IsbL-0925_RLatLon0.09_PT070H.grib2 2026-04-14 15:01 826K
20260414T12Z_MSC_RDPS_WindSpeed_IsbL-0950_RLatLon0.09_PT070H.grib2 2026-04-14 15:01 875K
20260414T12Z_MSC_RDPS_WindSpeed_IsbL-0970_RLatLon0.09_PT070H.grib2 2026-04-14 15:01 871K
20260414T12Z_MSC_RDPS_WindSpeed_IsbL-0985_RLatLon0.09_PT070H.grib2 2026-04-14 15:01 866K
20260414T12Z_MSC_RDPS_WindSpeed_IsbL-1000_RLatLon0.09_PT070H.grib2 2026-04-14 15:01 864K
20260414T12Z_MSC_RDPS_WindSpeed_IsbL-1015_RLatLon0.09_PT070H.grib2 2026-04-14 15:01 855K
20260414T12Z_MSC_RDPS_WindU_AGL-10m_RLatLon0.09_PT070H.grib2 2026-04-14 15:01 440K
20260414T12Z_MSC_RDPS_WindU_AGL-120m_RLatLon0.09_PT070H.grib2 2026-04-14 15:01 429K
20260414T12Z_MSC_RDPS_WindU_AGL-40m_RLatLon0.09_PT070H.grib2 2026-04-14 15:01 550K
20260414T12Z_MSC_RDPS_WindU_AGL-80m_RLatLon0.09_PT070H.grib2 2026-04-14 15:01 430K
20260414T12Z_MSC_RDPS_WindU_IsbL-0001_RLatLon0.09_PT070H.grib2 2026-04-14 15:01 288K
20260414T12Z_MSC_RDPS_WindU_IsbL-0005_RLatLon0.09_PT070H.grib2 2026-04-14 15:01 332K
20260414T12Z_MSC_RDPS_WindU_IsbL-0010_RLatLon0.09_PT070H.grib2 2026-04-14 15:01 316K
20260414T12Z_MSC_RDPS_WindU_IsbL-0020_RLatLon0.09_PT070H.grib2 2026-04-14 15:01 260K
20260414T12Z_MSC_RDPS_WindU_IsbL-0030_RLatLon0.09_PT070H.grib2 2026-04-14 15:01 261K
20260414T12Z_MSC_RDPS_WindU_IsbL-0050_RLatLon0.09_PT070H.grib2 2026-04-14 15:01 367K
20260414T12Z_MSC_RDPS_WindU_IsbL-0100_RLatLon0.09_PT070H.grib2 2026-04-14 15:01 346K
20260414T12Z_MSC_RDPS_WindU_IsbL-0150_RLatLon0.09_PT070H.grib2 2026-04-14 15:01 388K
20260414T12Z_MSC_RDPS_WindU_IsbL-0175_RLatLon0.09_PT070H.grib2 2026-04-14 15:01 411K
20260414T12Z_MSC_RDPS_WindU_IsbL-0200_RLatLon0.09_PT070H.grib2 2026-04-14 15:01 427K
20260414T12Z_MSC_RDPS_WindU_IsbL-0225_RLatLon0.09_PT070H.grib2 2026-04-14 15:01 436K
20260414T12Z_MSC_RDPS_WindU_IsbL-0250_RLatLon0.09_PT070H.grib2 2026-04-14 15:01 442K
20260414T12Z_MSC_RDPS_WindU_IsbL-0275_RLatLon0.09_PT070H.grib2 2026-04-14 15:01 360K
20260414T12Z_MSC_RDPS_WindU_IsbL-0300_RLatLon0.09_PT070H.grib2 2026-04-14 15:01 356K
20260414T12Z_MSC_RDPS_WindU_IsbL-0350_RLatLon0.09_PT070H.grib2 2026-04-14 15:01 362K
20260414T12Z_MSC_RDPS_WindU_IsbL-0400_RLatLon0.09_PT070H.grib2 2026-04-14 15:01 465K
20260414T12Z_MSC_RDPS_WindU_IsbL-0450_RLatLon0.09_PT070H.grib2 2026-04-14 15:01 462K
20260414T12Z_MSC_RDPS_WindU_IsbL-0500_RLatLon0.09_PT070H.grib2 2026-04-14 15:01 462K
20260414T12Z_MSC_RDPS_WindU_IsbL-0550_RLatLon0.09_PT070H.grib2 2026-04-14 15:01 463K
20260414T12Z_MSC_RDPS_WindU_IsbL-0600_RLatLon0.09_PT070H.grib2 2026-04-14 15:01 456K
20260414T12Z_MSC_RDPS_WindU_IsbL-0650_RLatLon0.09_PT070H.grib2 2026-04-14 15:01 490K
20260414T12Z_MSC_RDPS_WindU_IsbL-0700_RLatLon0.09_PT070H.grib2 2026-04-14 15:01 494K
20260414T12Z_MSC_RDPS_WindU_IsbL-0750_RLatLon0.09_PT070H.grib2 2026-04-14 15:01 523K
20260414T12Z_MSC_RDPS_WindU_IsbL-0800_RLatLon0.09_PT070H.grib2 2026-04-14 15:01 567K
20260414T12Z_MSC_RDPS_WindU_IsbL-0850_RLatLon0.09_PT070H.grib2 2026-04-14 15:01 631K
20260414T12Z_MSC_RDPS_WindU_IsbL-0875_RLatLon0.09_PT070H.grib2 2026-04-14 15:01 651K
20260414T12Z_MSC_RDPS_WindU_IsbL-0900_RLatLon0.09_PT070H.grib2 2026-04-14 15:01 667K
20260414T12Z_MSC_RDPS_WindU_IsbL-0925_RLatLon0.09_PT070H.grib2 2026-04-14 15:01 677K
20260414T12Z_MSC_RDPS_WindU_IsbL-0950_RLatLon0.09_PT070H.grib2 2026-04-14 15:01 670K
20260414T12Z_MSC_RDPS_WindU_IsbL-0970_RLatLon0.09_PT070H.grib2 2026-04-14 15:01 665K
20260414T12Z_MSC_RDPS_WindU_IsbL-0985_RLatLon0.09_PT070H.grib2 2026-04-14 15:01 663K
20260414T12Z_MSC_RDPS_WindU_IsbL-1000_RLatLon0.09_PT070H.grib2 2026-04-14 15:01 802K
20260414T12Z_MSC_RDPS_WindU_IsbL-1015_RLatLon0.09_PT070H.grib2 2026-04-14 15:01 795K
20260414T12Z_MSC_RDPS_WindV_AGL-10m_RLatLon0.09_PT070H.grib2 2026-04-14 15:01 437K
20260414T12Z_MSC_RDPS_WindV_AGL-120m_RLatLon0.09_PT070H.grib2 2026-04-14 15:01 425K
20260414T12Z_MSC_RDPS_WindV_AGL-40m_RLatLon0.09_PT070H.grib2 2026-04-14 15:01 546K
20260414T12Z_MSC_RDPS_WindV_AGL-80m_RLatLon0.09_PT070H.grib2 2026-04-14 15:01 427K
20260414T12Z_MSC_RDPS_WindV_IsbL-0001_RLatLon0.09_PT070H.grib2 2026-04-14 15:01 208K
20260414T12Z_MSC_RDPS_WindV_IsbL-0005_RLatLon0.09_PT070H.grib2 2026-04-14 15:01 237K
20260414T12Z_MSC_RDPS_WindV_IsbL-0010_RLatLon0.09_PT070H.grib2 2026-04-14 15:01 315K
20260414T12Z_MSC_RDPS_WindV_IsbL-0020_RLatLon0.09_PT070H.grib2 2026-04-14 15:01 326K
20260414T12Z_MSC_RDPS_WindV_IsbL-0030_RLatLon0.09_PT070H.grib2 2026-04-14 15:01 330K
20260414T12Z_MSC_RDPS_WindV_IsbL-0050_RLatLon0.09_PT070H.grib2 2026-04-14 15:01 365K
20260414T12Z_MSC_RDPS_WindV_IsbL-0100_RLatLon0.09_PT070H.grib2 2026-04-14 15:01 437K
20260414T12Z_MSC_RDPS_WindV_IsbL-0150_RLatLon0.09_PT070H.grib2 2026-04-14 15:01 385K
20260414T12Z_MSC_RDPS_WindV_IsbL-0175_RLatLon0.09_PT070H.grib2 2026-04-14 15:01 317K
20260414T12Z_MSC_RDPS_WindV_IsbL-0200_RLatLon0.09_PT070H.grib2 2026-04-14 15:01 427K
20260414T12Z_MSC_RDPS_WindV_IsbL-0225_RLatLon0.09_PT070H.grib2 2026-04-14 15:01 338K
20260414T12Z_MSC_RDPS_WindV_IsbL-0250_RLatLon0.09_PT070H.grib2 2026-04-14 15:01 343K
20260414T12Z_MSC_RDPS_WindV_IsbL-0275_RLatLon0.09_PT070H.grib2 2026-04-14 15:01 358K
20260414T12Z_MSC_RDPS_WindV_IsbL-0300_RLatLon0.09_PT070H.grib2 2026-04-14 15:01 355K
20260414T12Z_MSC_RDPS_WindV_IsbL-0350_RLatLon0.09_PT070H.grib2 2026-04-14 15:01 360K
20260414T12Z_MSC_RDPS_WindV_IsbL-0400_RLatLon0.09_PT070H.grib2 2026-04-14 15:01 360K
20260414T12Z_MSC_RDPS_WindV_IsbL-0450_RLatLon0.09_PT070H.grib2 2026-04-14 15:01 459K
20260414T12Z_MSC_RDPS_WindV_IsbL-0500_RLatLon0.09_PT070H.grib2 2026-04-14 15:01 460K
20260414T12Z_MSC_RDPS_WindV_IsbL-0550_RLatLon0.09_PT070H.grib2 2026-04-14 15:01 461K
20260414T12Z_MSC_RDPS_WindV_IsbL-0600_RLatLon0.09_PT070H.grib2 2026-04-14 15:01 470K
20260414T12Z_MSC_RDPS_WindV_IsbL-0650_RLatLon0.09_PT070H.grib2 2026-04-14 15:01 471K
20260414T12Z_MSC_RDPS_WindV_IsbL-0700_RLatLon0.09_PT070H.grib2 2026-04-14 15:01 491K
20260414T12Z_MSC_RDPS_WindV_IsbL-0750_RLatLon0.09_PT070H.grib2 2026-04-14 15:01 519K
20260414T12Z_MSC_RDPS_WindV_IsbL-0800_RLatLon0.09_PT070H.grib2 2026-04-14 15:01 563K
20260414T12Z_MSC_RDPS_WindV_IsbL-0850_RLatLon0.09_PT070H.grib2 2026-04-14 15:01 616K
20260414T12Z_MSC_RDPS_WindV_IsbL-0875_RLatLon0.09_PT070H.grib2 2026-04-14 15:01 638K
20260414T12Z_MSC_RDPS_WindV_IsbL-0900_RLatLon0.09_PT070H.grib2 2026-04-14 15:01 656K
20260414T12Z_MSC_RDPS_WindV_IsbL-0925_RLatLon0.09_PT070H.grib2 2026-04-14 15:01 665K
20260414T12Z_MSC_RDPS_WindV_IsbL-0950_RLatLon0.09_PT070H.grib2 2026-04-14 15:01 664K
20260414T12Z_MSC_RDPS_WindV_IsbL-0970_RLatLon0.09_PT070H.grib2 2026-04-14 15:01 658K
20260414T12Z_MSC_RDPS_WindV_IsbL-0985_RLatLon0.09_PT070H.grib2 2026-04-14 15:01 657K
20260414T12Z_MSC_RDPS_WindV_IsbL-1000_RLatLon0.09_PT070H.grib2 2026-04-14 15:01 796K
20260414T12Z_MSC_RDPS_WindV_IsbL-1015_RLatLon0.09_PT070H.grib2 2026-04-14 15:01 789K